Date,TemperatureHighF,TemperatureAvgF,TemperatureLowF,DewpointHighF,DewpointAvgF,DewpointLowF,HumidityHigh,HumidityAvg,HumidityLow,PressureMaxIn,PressureMinIn,WindSpeedMaxMPH,WindSpeedAvgMPH,GustSpeedMaxMPH,PrecipitationSumIn
2013-1-7,42.0,38.6,36.0,27.9,26.4,24.9,70,62,52,30.19,30.09,0,0,0,0.00
2013-1-8,53.7,41.9,34.2,35.7,31.1,26.7,79,66,46,30.24,30.01,0,0,0,0.00
2013-1-9,54.0,39.4,27.4,36.0,30.0,24.0,95,73,44,30.47,30.24,0,0,0,0.00
2013-1-10,48.4,42.6,37.3,48.0,39.3,28.0,100,90,57,30.39,29.78,0,0,0,0.26
2013-1-11,57.7,53.0,47.3,49.0,47.1,37.0,100,82,55,29.79,29.61,0,0,0,0.00
2013-1-12,56.0,29.8,20.7,37.0,17.1,10.0,82,63,35,30.15,29.77,0,0,0,0.00
2013-1-13,26.3,18.4,11.8,11.0,7.6,5.0,79,66,49,30.43,30.11,0,0,0,0.00
2013-1-14,31.1,19.1,10.0,11.0,7.8,4.0,90,66,37,30.58,30.43,0,0,0,0.00
2013-1-15,32.7,20.9,12.2,13.0,9.8,7.0,91,67,40,30.48,30.25,0,0,0,0.00
2013-1-16,44.4,28.7,16.4,26.0,17.9,9.0,87,68,46,30.26,30.07,0,0,0,0.00
2013-1-17,47.5,35.6,28.2,29.0,25.9,23.0,95,73,44,30.56,30.26,0,0,0,0.00
2013-1-18,54.9,42.2,31.3,32.0,28.2,24.0,82,62,39,30.48,30.09,0,0,0,0.00
2013-1-19,60.0,47.5,38.6,35.0,29.6,26.0,76,54,31,30.31,30.03,7,0,10,0.00
2013-1-20,40.8,29.0,20.4,27.0,12.1,6.0,71,52,37,30.48,30.31,11,2,14,0.00
2013-1-21,21.7,17.7,14.7,10.0,5.5,-1.0,82,62,43,30.52,30.43,9,1,12,0.00
2013-1-22,29.4,20.2,12.6,9.0,6.0,2.0,71,57,42,30.51,30.34,10,2,10,0.00
2013-1-23,47.2,28.8,13.1,24.0,15.1,7.0,83,61,39,30.48,30.24,10,2,15,0.00
2013-1-24,26.0,19.9,8.5,14.0,5.6,-1.0,71,57,43,30.56,30.22,14,3,17,0.00
2013-1-25,46.0,31.9,20.1,21.0,15.7,9.0,72,54,37,30.29,30.18,7,1,10,0.00
2013-1-26,55.8,39.7,26.5,27.0,23.2,18.0,84,57,32,30.32,30.12,9,2,12,0.00
2013-1-27,60.0,49.4,38.5,56.0,44.8,24.0,95,85,48,30.12,29.76,19,5,23,0.08
2013-1-28,72.8,64.4,57.0,61.0,57.6,55.0,95,80,55,29.89,29.67,18,5,23,0.00
2013-1-29,66.8,48.7,34.7,62.0,46.9,35.0,100,94,82,29.67,29.47,16,3,21,1.21
2013-1-30,35.1,26.2,21.1,35.0,22.0,14.0,100,87,74,30.03,29.51,17,4,25,0.03
2013-1-31,23.0,17.0,8.5,19.0,8.9,-1.0,90,74,57,30.55,29.98,15,3,22,0.00
2013-2-1,24.5,16.6,6.3,14.0,6.7,-1.0,82,68,56,30.53,30.17,10,2,11,0.00
2013-2-2,47.0,35.2,23.6,34.0,25.0,14.0,77,69,59,30.25,30.09,10,3,14,0.00
2013-2-3,47.2,38.7,30.8,30.0,23.6,15.0,84,59,34,30.30,29.87,10,3,23,0.00
2013-2-4,49.5,39.0,24.1,32.0,26.2,20.0,89,64,49,30.01,29.78,12,3,14,0.00
2013-2-5,57.6,37.7,22.6,35.0,26.5,20.0,96,70,39,30.14,29.91,9,2,14,0.00
2013-2-6,60.2,45.3,27.7,41.0,32.8,23.0,90,65,44,30.14,29.90,12,3,17,0.00
2013-2-7,48.9,42.1,30.9,47.0,39.3,26.0,100,91,67,30.23,29.88,10,2,15,0.78
2013-2-8,41.6,32.8,28.2,31.0,27.2,25.0,94,84,64,30.38,30.23,9,2,12,0.00
2013-2-9,47.1,35.5,27.7,38.0,30.7,25.0,98,86,60,30.28,29.78,12,3,15,0.04
2013-2-10,51.3,43.3,35.6,48.0,34.4,22.0,100,74,49,29.96,29.48,30,7,40,0.05
2013-2-11,46.8,36.8,29.4,27.0,23.5,20.0,78,62,42,30.21,29.96,16,3,21,0.00
2013-2-12,40.4,32.4,23.7,28.0,23.4,19.0,92,73,54,30.22,29.99,5,0,6,0.00
2013-2-13,54.1,40.3,27.1,29.0,24.7,22.0,86,59,34,30.00,29.84,14,2,19,0.00
2013-2-14,49.2,40.8,31.3,33.0,26.1,20.0,84,60,42,30.22,29.88,16,3,18,0.00
2013-2-15,37.3,29.8,20.9,26.0,15.2,7.0,90,59,33,30.42,30.22,16,3,17,0.00
2013-2-16,32.7,27.5,17.9,23.0,19.3,15.0,95,76,55,30.37,30.10,10,2,15,0.00
2013-2-17,56.5,41.9,24.9,35.0,27.2,19.0,85,59,41,30.10,29.70,14,2,16,0.00
2013-2-18,53.2,42.7,27.4,47.0,31.8,16.0,92,68,44,30.12,29.56,24,6,26,0.02
2013-2-19,34.4,26.7,21.0,17.0,9.6,2.0,79,53,28,30.41,30.12,15,3,20,0.00
2013-2-20,24.6,20.4,15.1,13.0,7.3,1.0,72,59,48,30.44,30.23,10,2,13,0.00
2013-2-21,25.6,22.5,19.1,26.0,19.6,12.0,100,92,71,30.25,29.78,20,4,23,0.00
2013-2-22,28.5,22.5,14.5,24.0,18.2,11.0,100,87,69,30.13,29.82,10,2,12,0.00
2013-2-23,32.8,21.1,7.2,20.0,13.9,4.0,96,79,59,30.13,29.99,7,1,11,0.11
2013-2-24,48.6,30.6,13.3,29.0,20.9,10.0,97,73,45,30.07,29.95,11,2,13,0.05
2013-2-25,35.9,32.0,27.7,32.0,26.6,22.0,100,84,71,30.01,29.69,14,4,22,0.01
2013-2-26,32.1,31.0,29.5,32.0,30.3,29.0,100,99,95,29.90,29.58,10,1,13,0.02
2013-2-27,33.4,30.2,27.5,29.0,26.8,24.0,100,90,76,30.10,29.87,4,0,6,0.03
2013-2-28,32.0,29.4,27.0,27.0,24.8,23.0,90,86,80,30.25,30.09,6,1,6,0.00
2013-3-1,30.3,26.8,24.9,24.0,21.6,19.0,89,84,74,30.37,30.22,5,1,6,0.00
2013-3-2,33.4,26.8,21.6,21.0,18.5,14.0,88,74,56,30.41,30.23,6,1,6,0.23
2013-3-3,42.3,33.4,23.1,29.0,23.5,18.0,85,71,55,30.24,29.80,10,2,12,0.08
2013-3-4,49.6,39.8,33.4,34.0,30.0,27.0,94,71,54,30.00,29.69,10,3,18,0.00
2013-3-5,35.1,31.0,26.7,33.0,21.5,16.0,99,71,58,30.40,29.99,22,5,29,0.04
2013-3-6,38.9,29.8,22.8,23.0,19.1,16.0,80,68,52,30.48,30.34,10,2,13,0.00
2013-3-7,49.2,34.9,23.0,31.0,24.2,18.0,85,69,48,30.35,30.18,10,2,13,0.00
2013-3-8,55.7,44.8,33.9,40.0,34.4,26.0,79,68,53,30.26,30.02,11,3,16,0.00
2013-3-9,58.0,50.6,44.0,55.0,46.4,39.0,100,86,67,30.03,29.62,12,3,15,0.70
2013-3-10,53.1,40.4,26.5,53.0,39.7,23.0,100,98,92,29.95,29.58,14,4,19,0.02
2013-3-11,36.4,28.6,24.5,24.0,22.0,20.0,92,81,58,30.07,29.90,18,4,18,0.00
2013-3-12,48.1,35.3,27.6,30.0,23.3,20.0,87,66,40,30.39,30.05,19,3,27,0.00
2013-3-13,46.5,33.7,23.2,24.0,20.3,18.0,85,62,36,30.54,30.37,9,2,10,0.00
2013-3-14,72.0,50.0,33.9,43.0,32.4,22.0,71,54,32,30.37,30.08,14,3,19,0.00
2013-3-15,79.8,58.2,36.3,49.0,41.9,33.0,92,59,31,30.14,29.69,12,3,19,0.00
2013-3-16,58.3,43.8,36.1,45.0,34.5,27.0,86,71,59,30.13,29.72,16,4,19,0.00
2013-3-17,36.2,32.7,31.2,33.0,28.9,24.0,100,89,72,30.13,29.81,14,4,17,0.00
2013-3-18,53.2,41.4,33.1,38.0,28.9,17.0,100,68,31,30.13,29.80,17,3,22,0.00
2013-3-19,37.1,32.6,27.5,36.0,25.4,15.0,99,79,48,30.33,30.11,6,1,7,0.00
2013-3-20,39.5,31.1,23.3,33.0,14.5,7.0,100,55,30,30.47,30.20,12,3,19,0.00
2013-3-21,28.4,25.8,22.5,26.0,17.7,10.0,96,76,55,30.19,29.98,13,2,15,0.00
2013-3-22,32.8,30.4,28.1,30.0,28.2,26.0,100,95,88,30.07,30.01,7,2,9,0.00
2013-3-23,37.4,32.8,30.9,32.0,29.4,27.0,100,91,70,30.10,29.86,14,3,17,0.00
2013-3-24,31.1,27.8,22.7,31.0,25.5,17.0,100,93,81,30.11,29.81,9,1,14,0.01
2013-3-25,32.2,26.2,19.8,27.0,21.5,16.0,97,86,73,30.38,30.10,12,2,13,0.00
2013-3-26,37.0,28.1,18.5,24.0,20.2,16.0,97,77,57,30.47,30.35,8,1,10,0.00
2013-3-27,50.7,36.3,22.8,35.0,26.7,19.0,93,72,52,30.37,30.22,10,2,14,0.00
2013-3-28,64.3,49.9,32.9,42.0,36.4,28.0,90,63,42,30.27,30.17,7,2,9,0.00
2013-3-29,69.3,54.5,39.9,45.0,39.7,36.0,90,61,32,30.26,30.13,10,2,13,0.00
2013-3-30,64.8,55.2,49.9,57.0,50.2,42.0,97,84,67,30.13,29.89,7,2,12,0.00
2013-3-31,66.6,54.8,43.6,50.0,40.5,28.0,100,64,34,30.06,29.94,13,2,17,0.00
2013-4-1,47.9,41.0,33.5,34.0,22.4,14.0,82,51,30,30.37,30.06,12,3,16,0.00
2013-4-2,50.5,39.1,28.9,24.0,19.6,16.0,67,49,32,30.42,30.32,8,2,14,0.00
2013-4-3,51.7,41.0,30.5,26.0,22.1,17.0,74,51,34,30.43,30.30,12,2,17,0.00
2013-4-4,62.7,49.0,37.0,31.0,26.0,20.0,68,45,24,30.31,30.12,8,1,11,0.00
2013-4-5,69.0,53.5,35.9,44.0,36.4,28.0,83,56,36,30.24,29.93,10,2,17,0.00
2013-4-6,76.0,62.7,54.3,51.0,43.7,37.0,62,51,30,29.94,29.71,22,6,27,0.00
2013-4-7,71.0,58.6,43.9,56.0,47.2,39.0,96,68,43,29.94,29.70,10,2,14,0.04
2013-4-8,72.5,63.4,54.4,63.0,59.0,53.0,100,87,71,29.79,29.73,12,3,17,0.04
2013-4-9,70.8,66.4,61.2,64.0,60.4,58.0,99,82,74,29.82,29.69,12,3,14,0.23
2013-4-10,60.2,42.2,37.4,59.0,42.2,37.0,100,100,95,30.00,29.76,15,3,21,0.32
2013-4-11,40.5,35.5,32.4,37.0,29.7,26.0,100,83,64,29.89,29.77,14,4,19,0.05
2013-4-12,52.4,39.8,30.2,36.0,29.8,25.0,91,71,48,30.11,29.84,14,3,19,0.00
2013-4-13,63.9,48.8,31.9,45.0,37.3,29.0,96,68,46,30.13,29.79,13,2,16,0.00
2013-4-14,73.3,61.4,52.4,58.0,47.8,35.0,89,62,45,29.78,29.52,23,5,30,0.02
2013-4-15,56.1,48.3,43.3,45.0,38.2,31.0,97,70,47,30.07,29.76,10,2,12,0.04
2013-4-16,45.6,43.4,41.2,37.0,34.1,30.0,78,70,60,30.21,30.06,13,4,18,0.00
2013-4-17,51.5,47.7,44.3,52.0,46.5,38.0,100,96,78,30.15,29.68,9,2,14,0.05
2013-4-18,46.7,39.0,35.5,47.0,36.2,25.0,100,91,73,30.02,29.59,18,5,24,0.00
2013-4-19,52.3,41.1,30.7,29.0,25.3,21.0,84,58,33,30.18,29.98,17,5,24,0.00
2013-4-20,58.2,44.5,28.8,36.0,29.3,24.0,89,59,38,30.32,30.18,15,3,17,0.00
2013-4-21,66.2,60.3,51.5,45.0,41.3,38.0,69,50,41,30.28,30.15,12,4,19,0.00
2013-4-22,66.0,55.6,47.4,49.0,43.1,39.0,90,64,46,30.21,29.96,9,3,17,0.00
2013-4-23,52.0,36.1,33.1,49.0,35.2,31.0,100,97,82,30.26,30.06,16,3,20,0.00
2013-4-24,52.8,41.0,29.2,34.0,29.8,25.0,100,70,42,30.35,30.23,12,3,15,0.00
2013-4-25,67.3,52.3,33.6,41.0,36.3,30.0,93,59,35,30.39,30.22,9,2,16,0.00
2013-4-26,54.7,50.3,47.0,49.0,46.0,39.0,100,87,57,30.29,30.22,14,3,16,0.00
2013-4-27,53.4,49.2,46.1,51.0,48.4,46.0,100,98,90,30.28,30.08,7,2,9,0.00
2013-4-28,73.1,57.4,39.6,57.0,50.2,40.0,100,80,49,30.08,29.84,11,2,14,0.00
2013-4-29,82.8,69.3,55.2,65.0,58.1,51.0,89,70,48,29.88,29.67,14,4,19,0.00
2013-4-30,81.7,73.1,64.1,57.0,53.6,49.0,74,52,35,29.85,29.69,16,5,23,0.00
2013-5-1,81.8,66.2,44.8,62.0,52.1,38.0,78,62,43,30.20,29.84,12,3,18,0.01
2013-5-2,44.8,36.7,31.2,41.0,35.7,31.0,100,97,78,30.45,30.20,13,3,23,0.42
2013-5-3,38.3,35.3,31.5,37.0,34.2,32.0,100,96,85,30.40,29.98,12,3,17,0.60
2013-5-4,47.6,39.9,32.1,44.0,38.2,32.0,100,94,79,30.10,29.90,8,2,13,0.13
2013-5-5,55.3,48.8,42.7,51.0,47.3,43.0,100,95,83,30.18,30.08,9,2,13,0.03
2013-5-6,68.0,56.1,49.5,56.0,51.7,48.0,99,86,61,30.19,30.09,9,2,12,0.00
2013-5-7,74.9,61.0,45.1,58.0,49.9,43.0,100,71,36,30.17,30.03,8,1,10,0.00
2013-5-8,73.6,63.1,54.6,60.0,55.9,50.0,98,78,58,30.08,29.94,12,2,14,0.02
2013-5-9,73.9,64.0,57.8,64.0,59.1,55.0,100,86,59,29.98,29.83,10,2,14,0.37
2013-5-10,66.6,58.1,51.5,57.0,52.4,47.0,98,83,54,30.05,29.89,14,2,14,0.00
2013-5-11,65.7,56.0,46.3,51.0,37.7,25.0,99,58,27,30.25,30.04,12,2,21,0.00
2013-5-12,65.9,52.6,35.8,42.0,33.4,25.0,92,53,26,30.29,30.12,6,1,9,0.00
2013-5-13,76.2,61.9,44.1,56.0,48.6,41.0,95,65,42,30.16,29.91,8,2,11,0.00
2013-5-14,90.3,75.9,62.5,58.0,53.2,47.0,76,49,25,29.91,29.79,22,4,25,0.00
2013-5-15,83.8,73.8,65.4,67.0,60.3,53.0,85,64,49,29.88,29.80,16,3,16,0.00
2013-5-16,78.9,69.4,61.5,65.0,61.7,58.0,95,78,56,29.87,29.77,10,2,16,0.00
2013-5-17,76.0,66.8,59.9,64.0,61.1,59.0,99,84,63,29.92,29.83,6,1,8,0.00
2013-5-18,82.9,72.3,58.9,71.0,65.7,58.0,100,81,63,29.89,29.70,12,2,14,0.00
2013-5-19,81.6,69.1,61.3,72.0,65.0,59.0,100,88,68,29.85,29.53,30,2,30,0.81
2013-5-20,76.0,66.5,60.2,70.0,63.8,59.0,100,92,76,29.73,29.58,10,2,17,0.01
2013-5-21,73.2,64.9,55.8,64.0,54.3,49.0,96,70,51,29.76,29.65,12,2,19,0.00
2013-5-22,65.8,60.5,54.3,54.0,51.2,49.0,86,72,61,29.92,29.71,13,2,17,0.00
2013-5-23,66.7,60.0,52.7,57.0,51.9,48.0,89,75,65,30.21,29.92,9,2,12,0.00
2013-5-24,71.8,60.5,47.7,56.0,50.1,47.0,100,72,46,30.32,30.11,16,2,19,0.00
2013-5-25,80.1,69.3,59.7,67.0,58.6,47.0,85,70,54,30.14,29.98,9,2,16,0.00
2013-5-26,81.8,73.7,66.6,70.0,66.9,63.0,94,80,65,30.04,29.86,12,2,16,0.00
2013-5-27,78.8,70.4,61.9,73.0,65.8,62.0,100,86,75,29.91,29.63,14,2,19,1.71
2013-5-28,76.3,72.6,69.5,73.0,68.7,66.0,98,88,78,29.77,29.62,12,2,17,0.05
2013-5-29,78.2,72.9,64.1,69.0,66.3,62.0,94,81,69,29.79,29.60,19,3,24,0.09
2013-5-30,70.7,63.3,60.8,67.0,62.5,61.0,100,97,83,29.71,29.55,10,2,16,1.31
2013-5-31,77.4,65.9,57.3,70.0,64.3,57.0,100,95,75,29.74,29.61,10,2,15,2.56
2013-6-1,68.3,64.3,60.1,66.0,56.8,51.0,100,78,57,29.96,29.64,14,3,19,0.00
2013-6-2,62.9,57.5,50.1,53.0,50.1,47.0,90,77,62,30.08,29.94,10,1,11,0.00
2013-6-3,71.8,59.2,44.1,59.0,52.0,43.0,100,79,58,30.09,29.86,9,2,15,0.00
2013-6-4,72.6,64.8,61.9,68.0,61.1,56.0,100,88,79,29.96,29.84,10,2,16,0.13
2013-6-5,65.5,62.5,59.9,65.0,62.3,59.0,100,99,96,29.95,29.88,6,1,9,1.50
2013-6-6,72.5,64.8,57.1,63.0,56.9,52.0,100,78,51,29.94,29.88,7,1,12,0.00
2013-6-7,73.5,62.7,52.3,58.0,53.5,51.0,100,75,48,30.00,29.88,7,1,10,0.00
2013-6-8,78.2,66.5,51.7,63.0,57.7,50.0,98,75,56,29.92,29.73,12,2,15,0.00
2013-6-9,79.8,69.0,60.7,64.0,59.6,51.0,100,76,38,29.84,29.71,12,2,19,0.23
2013-6-10,85.3,71.3,58.4,63.0,59.4,55.0,96,70,37,29.94,29.80,7,1,9,0.00
2013-6-11,90.9,79.7,69.9,71.0,66.9,63.0,95,67,43,29.94,29.85,15,3,22,0.00
2013-6-12,92.3,82.8,75.0,73.0,69.7,61.0,82,66,47,29.99,29.80,17,4,27,0.00
2013-6-13,82.0,72.8,62.6,65.0,60.3,54.0,86,66,50,30.10,29.99,9,2,11,0.00
2013-6-14,85.7,75.4,64.5,75.0,68.3,62.0,97,80,64,30.06,29.92,10,2,14,0.00
2013-6-15,86.7,74.0,65.4,76.0,69.8,61.0,100,88,61,30.06,29.91,22,2,35,1.37
2013-6-16,80.7,72.1,64.9,76.0,70.1,65.0,100,94,81,30.01,29.92,5,1,7,0.01
2013-6-17,75.0,69.8,65.0,72.0,68.7,64.0,100,97,81,30.01,29.93,9,1,11,0.14
2013-6-18,83.1,71.5,62.6,72.0,65.5,62.0,100,84,52,30.06,30.00,7,1,9,0.02
2013-6-19,83.6,73.5,62.4,72.0,66.8,62.0,100,81,55,30.08,29.99,8,1,11,0.00
2013-6-20,86.5,78.0,69.1,75.0,70.7,66.0,94,79,66,30.06,29.95,16,2,22,0.00
2013-6-21,89.0,80.9,74.5,77.0,72.8,70.0,90,77,59,30.03,29.94,11,3,17,0.00
2013-6-22,88.6,82.1,76.2,74.0,71.2,68.0,84,71,53,30.04,29.90,12,3,19,0.00
2013-6-23,87.1,79.7,73.0,76.0,72.0,69.0,90,78,62,30.00,29.81,10,2,18,0.00
2013-6-24,87.3,80.7,73.8,74.0,69.8,67.0,86,70,56,29.99,29.84,11,3,19,0.00
2013-6-25,85.9,79.2,73.3,74.0,70.9,68.0,97,77,63,29.94,29.75,14,3,17,0.09
2013-6-26,96.3,83.4,74.1,75.0,68.9,58.0,90,66,29,29.94,29.75,10,2,13,0.00
2013-6-27,85.4,75.4,69.2,79.0,70.7,66.0,97,86,67,30.05,29.86,10,1,24,0.30
2013-6-28,85.3,76.2,66.3,72.0,64.1,57.0,100,71,40,30.03,29.91,10,2,17,0.01
2013-6-29,82.1,73.7,65.1,61.0,57.9,54.0,79,59,40,29.91,29.84,15,3,24,0.00
2013-6-30,77.9,69.8,61.1,60.0,57.6,55.0,85,67,50,30.08,29.91,10,2,13,0.00
2013-7-1,80.7,70.0,58.7,59.0,54.5,49.0,91,61,37,30.15,30.07,11,2,14,0.00
2013-7-2,80.8,69.6,57.0,62.0,55.3,50.0,94,65,37,30.18,30.08,7,1,10,0.03
2013-7-3,82.9,66.9,58.5,62.0,58.1,52.0,100,78,37,30.12,30.01,10,1,14,0.98
2013-7-4,82.5,69.5,56.2,67.0,59.8,56.0,100,76,44,30.10,30.00,6,1,9,0.01
2013-7-5,85.8,75.4,63.3,69.0,62.5,59.0,87,66,45,30.05,29.94,9,2,12,0.00
2013-7-6,84.3,75.2,68.3,70.0,64.5,61.0,92,71,55,30.04,29.94,11,2,16,0.05
2013-7-7,87.8,79.0,70.3,72.0,68.0,64.0,90,71,52,30.04,29.96,10,2,14,0.03
2013-7-8,91.3,81.4,74.1,73.0,69.0,66.0,80,67,50,30.06,30.00,9,2,14,0.00
2013-7-9,95.4,85.1,76.8,78.0,72.1,68.0,83,67,48,30.05,29.89,9,2,16,0.00
2013-7-10,89.9,82.6,73.1,75.0,68.5,60.0,82,64,40,30.07,29.93,11,2,16,0.00
2013-7-11,86.1,75.6,66.6,65.0,61.6,59.0,86,64,43,30.12,30.02,9,2,11,0.00
2013-7-12,87.0,76.7,67.7,68.0,63.1,59.0,80,64,50,30.09,30.01,12,2,15,0.00
2013-7-13,87.0,77.3,68.5,70.0,63.8,59.0,73,64,53,30.08,29.99,9,2,13,0.00
2013-7-14,86.0,75.9,64.8,65.0,62.3,58.0,89,65,41,30.15,30.04,12,2,17,0.00
2013-7-15,88.1,77.5,68.0,72.0,67.8,62.0,95,74,51,30.22,30.14,10,2,14,0.00
2013-7-16,91.4,81.0,71.2,75.0,69.8,67.0,94,71,45,30.31,30.21,6,1,9,0.00
2013-7-17,89.3,80.5,71.8,74.0,71.4,69.0,94,75,56,30.34,30.23,6,1,10,0.00
2013-7-18,93.4,82.4,71.0,73.0,69.3,65.0,97,68,41,30.25,30.03,9,1,9,0.00
2013-7-19,94.5,84.3,73.0,71.0,67.0,64.0,82,58,39,30.06,29.89,9,2,14,0.00
2013-7-20,86.1,77.6,72.5,76.0,71.7,66.0,98,83,60,29.96,29.88,6,1,8,0.11
2013-7-21,83.3,74.5,70.4,74.0,70.7,69.0,98,89,65,29.97,29.85,7,1,9,0.01
2013-7-25,73.4,70.3,69.6,70.0,69.9,68.0,100,98,85,30.11,30.04,2,1,6,0.24
2013-7-26,84.3,73.7,68.4,72.0,65.8,52.0,100,80,47,30.08,29.99,9,1,13,0.09
2013-7-27,76.6,66.8,56.6,58.0,53.5,49.0,95,65,42,30.15,30.00,9,1,14,0.00
2013-7-28,72.6,65.0,56.2,58.0,54.3,49.0,95,71,46,30.09,30.04,6,1,7,0.00
2013-7-29,70.1,65.5,60.8,70.0,63.8,56.0,100,95,75,30.12,29.98,7,1,12,0.88
2013-7-30,80.7,73.9,70.1,76.0,72.2,69.0,100,95,81,30.09,29.99,5,1,7,0.30
2013-7-31,82.8,74.7,69.0,72.0,68.7,66.0,100,83,59,30.14,30.06,7,1,10,0.00
2013-8-1,86.0,75.2,64.5,71.0,67.1,63.0,100,78,53,30.13,29.99,6,1,7,0.00
2013-8-2,83.6,74.9,66.8,76.0,71.3,66.0,100,89,75,30.03,29.87,7,1,9,0.32
2013-8-3,81.4,75.7,71.1,74.0,71.8,70.0,99,88,72,30.14,29.93,7,2,12,0.04
2013-8-4,74.9,70.2,66.9,72.0,67.6,63.0,100,92,79,30.16,30.03,8,1,10,0.31
2013-8-5,83.5,74.7,69.2,76.0,72.5,69.0,100,94,76,30.07,29.84,6,1,6,0.00
2013-8-6,85.8,77.3,69.8,77.0,74.0,70.0,100,90,73,29.90,29.81,13,1,19,0.15
2013-8-7,83.6,76.2,70.5,77.0,73.1,68.0,100,91,76,29.97,29.80,20,1,28,0.74
2013-8-8,73.3,69.9,67.4,69.0,66.9,65.0,94,90,84,30.02,29.89,9,1,14,0.01
2013-8-9,72.4,69.2,65.5,71.0,67.6,65.0,98,95,91,30.13,30.00,3,0,4,0.04
2013-8-10,81.7,71.4,62.9,69.0,64.5,60.0,100,81,52,30.21,30.11,9,1,11,0.01
2013-8-11,83.3,72.6,60.3,70.0,65.4,59.0,98,80,60,30.17,30.04,5,1,7,0.00
2013-8-12,81.8,73.4,66.9,71.0,69.2,67.0,100,88,67,30.08,29.99,7,1,10,0.79
2013-8-13,77.7,71.0,65.0,69.0,63.9,59.0,99,80,55,30.15,30.05,7,1,10,0.00
2013-8-14,76.0,67.6,61.1,63.0,59.5,56.0,95,77,53,30.23,30.13,7,1,9,0.00
2013-8-15,73.1,66.1,61.0,64.0,58.6,55.0,87,77,63,30.17,30.03,6,1,11,0.00
2013-8-16,65.1,64.1,64.0,58.0,58.0,58.0,82,82,81,30.13,30.11,3,1,4,0.00
2013-8-28,80.0,78.6,77.5,72.0,71.2,71.0,81,78,74,29.93,29.92,2,0,2,0.00
2013-8-29,93.3,82.9,72.6,75.0,71.4,68.0,94,71,46,29.93,29.84,7,1,11,0.00
2013-8-30,97.3,85.5,74.9,73.0,70.3,65.0,87,64,36,29.86,29.72,10,2,14,0.00
2013-8-31,88.3,81.6,75.0,77.0,72.6,69.0,90,75,55,29.75,29.68,10,1,13,0.00
2013-9-1,86.0,75.7,68.1,75.0,69.4,62.0,100,83,58,29.84,29.63,19,2,40,0.79
2013-9-2,82.3,71.3,62.0,64.0,61.2,58.0,96,73,46,29.93,29.83,7,1,11,0.00
2013-9-3,84.8,70.1,57.3,62.0,59.2,55.0,98,72,42,29.98,29.89,7,1,7,0.00
2013-9-4,84.7,70.9,58.5,67.0,61.4,57.0,99,75,43,30.05,29.93,5,0,6,0.00
2013-9-5,85.8,72.9,60.1,67.0,62.6,59.0,99,74,44,30.09,30.00,7,1,10,0.01
2013-9-6,87.3,75.8,64.6,69.0,64.6,62.0,94,71,48,30.03,29.88,7,1,9,0.00
2013-9-7,93.8,80.9,68.8,70.0,67.0,63.0,85,65,44,29.90,29.80,10,1,11,0.00
2013-9-8,97.8,85.2,74.1,72.0,68.1,66.0,82,59,37,29.83,29.72,10,2,14,0.00
2013-9-9,93.8,83.1,73.8,68.0,64.8,59.0,80,56,33,29.87,29.78,16,2,19,0.00
2013-9-10,92.1,81.3,70.9,69.0,65.2,63.0,82,60,40,29.99,29.86,14,2,17,0.00
2013-9-11,92.3,79.9,68.0,67.0,63.5,60.0,88,61,35,30.06,29.94,11,1,14,0.00
2013-9-12,85.0,76.4,70.1,73.0,65.1,48.0,97,70,44,30.11,30.02,6,1,12,0.04
2013-9-13,75.5,66.8,56.8,54.0,50.0,47.0,84,57,38,30.15,30.00,7,2,10,0.00
2013-9-14,77.5,65.1,53.4,54.0,50.9,47.0,84,62,41,30.15,29.97,9,1,12,0.00
2013-9-15,82.8,70.8,63.8,68.0,60.3,52.0,91,71,55,30.16,29.95,10,2,17,0.05
2013-9-16,67.0,60.2,58.6,63.0,59.3,58.0,100,97,90,30.28,30.13,10,2,13,0.19
2013-9-17,69.0,64.5,61.0,69.0,64.2,60.0,100,99,97,30.22,30.00,8,2,10,1.04
2013-9-18,86.3,74.8,65.5,74.0,69.3,66.0,100,85,59,30.01,29.84,10,2,16,0.01
2013-9-19,89.8,76.7,66.5,71.0,68.3,65.0,100,78,47,29.95,29.77,16,2,22,1.31
2013-9-20,69.2,62.1,53.1,67.0,55.1,49.0,100,80,51,30.09,29.93,9,1,14,0.00
2013-9-21,79.0,59.2,47.8,55.0,50.1,44.0,100,76,39,30.09,29.94,6,1,7,0.01
2013-9-22,77.8,61.7,49.8,55.0,51.5,49.0,98,73,42,30.05,29.89,8,1,10,0.00
2013-9-23,76.9,63.9,54.0,57.0,53.4,51.0,92,71,45,29.98,29.81,14,2,16,0.00
2013-9-24,67.3,63.5,59.2,60.0,57.6,54.0,96,82,71,29.88,29.80,12,1,12,0.00
2013-9-25,76.8,64.8,55.7,65.0,60.2,55.0,100,86,62,29.93,29.84,7,1,9,0.01
2013-9-26,82.8,70.6,59.5,65.0,61.0,59.0,97,74,47,29.96,29.87,9,2,13,0.00
2013-9-27,83.5,73.6,65.3,66.0,62.5,61.0,87,70,48,30.00,29.89,11,2,13,0.00
2013-9-28,71.8,63.3,53.2,67.0,59.4,52.0,100,88,72,30.12,29.84,14,2,17,0.56
2013-9-29,70.8,57.8,45.3,58.0,51.3,45.0,100,82,48,30.17,29.99,6,1,8,0.01
2013-9-30,75.1,61.6,47.9,62.0,55.7,47.0,100,83,60,30.00,29.86,11,1,12,0.01
2013-10-1,79.7,68.0,57.9,68.0,62.9,56.0,100,85,63,30.00,29.88,7,1,9,0.00
2013-10-2,80.8,70.0,60.8,72.0,66.3,60.0,100,89,68,30.05,29.91,7,1,9,0.00
2013-10-3,82.8,72.6,65.3,73.0,68.1,63.0,100,87,65,29.92,29.75,12,2,20,0.02
2013-10-4,84.5,74.7,65.9,72.0,67.9,63.0,99,81,58,29.93,29.75,13,2,17,0.68
2013-10-5,67.1,53.1,45.8,66.0,43.3,36.0,100,71,50,30.08,29.90,16,2,17,0.05
2013-10-6,58.9,50.3,42.5,46.0,41.0,36.0,83,71,56,30.07,29.91,14,3,20,0.00
2013-10-7,68.7,54.7,41.4,49.0,44.7,39.0,96,72,43,30.23,30.06,6,1,8,0.00
2013-10-8,72.7,60.0,48.4,53.0,48.0,45.0,90,67,39,30.18,30.07,10,2,14,0.00
2013-10-9,73.3,60.7,51.3,53.0,49.4,47.0,87,69,40,30.17,30.07,9,1,12,0.00
2013-10-10,75.3,61.7,47.5,60.0,52.6,46.0,99,75,48,30.14,29.91,9,1,14,0.00
2013-10-11,73.7,65.2,56.4,66.0,59.7,53.0,95,83,73,29.94,29.80,9,2,14,0.06
2013-10-12,67.5,57.7,47.5,59.0,47.2,40.0,98,71,38,30.31,29.87,7,1,14,0.01
2013-10-13,68.2,54.2,41.9,46.0,41.6,37.0,98,68,34,30.48,30.30,11,1,14,0.00
2013-10-14,65.8,57.7,51.1,59.0,47.3,37.0,95,70,50,30.38,29.93,13,3,20,0.05
2013-10-15,60.0,53.8,46.6,59.0,46.5,38.0,100,78,55,30.14,29.92,14,3,20,0.13
2013-10-16,56.3,49.5,43.3,46.0,41.2,38.0,87,74,57,30.20,30.06,12,2,15,0.00
2013-10-17,63.9,52.0,41.7,47.0,42.9,36.0,96,74,38,30.10,29.98,10,2,16,0.01
2013-10-18,50.1,40.7,35.8,41.0,37.5,35.0,100,89,69,30.20,30.09,7,1,11,0.21
2013-10-19,58.5,44.3,32.9,43.0,37.8,33.0,100,81,47,30.18,29.95,13,2,15,0.00
2013-10-20,67.3,54.5,44.2,47.0,42.9,39.0,84,67,40,29.99,29.84,14,2,19,0.00
2013-10-21,54.0,47.1,41.4,47.0,36.2,30.0,85,67,45,30.19,29.97,8,1,12,0.00
2013-10-22,59.4,49.2,40.0,46.0,38.9,34.0,81,69,51,30.17,29.97,15,2,17,0.00
2013-10-23,49.1,41.8,33.2,40.0,34.7,30.0,97,78,58,30.25,30.09,6,1,8,0.00
2013-10-24,48.9,41.3,31.5,39.0,31.0,25.0,90,71,41,30.52,30.21,9,1,14,0.00
2013-10-25,54.3,41.1,27.6,33.0,27.1,24.0,97,65,34,30.55,30.23,9,1,17,0.00
2013-10-26,59.4,48.5,37.4,43.0,36.3,29.0,86,65,36,30.25,30.14,9,2,13,0.00
2013-10-27,60.9,44.3,29.8,37.0,32.0,27.0,98,68,34,30.24,30.00,7,1,9,0.00
2013-10-28,64.5,48.0,34.6,53.0,43.2,31.0,97,85,65,30.20,30.05,6,1,10,0.00
2013-10-29,63.4,56.2,50.3,63.0,55.9,48.0,100,99,92,30.19,29.97,8,2,15,0.97
2013-10-30,67.1,64.2,60.7,67.0,64.0,61.0,100,99,87,30.01,29.76,14,2,19,3.07
2013-10-31,61.7,50.6,45.3,62.0,50.3,45.0,100,99,88,29.79,29.60,9,2,12,1.16
2013-11-1,57.2,48.6,40.0,46.0,41.9,39.0,100,80,50,30.04,29.68,16,2,22,0.00
2013-11-2,54.8,45.4,37.3,40.0,36.7,32.0,90,74,44,30.25,30.03,14,2,16,0.00
2013-11-3,58.2,47.1,35.0,41.0,37.0,33.0,95,70,45,30.25,29.97,17,3,19,0.00
2013-11-4,58.1,54.0,47.8,51.0,46.6,40.0,87,76,64,30.16,29.95,12,3,21,0.03
2013-11-5,59.0,55.4,49.3,59.0,55.2,49.0,100,99,87,30.17,29.91,11,3,18,0.41
2013-11-6,57.8,38.6,32.8,49.0,36.1,31.0,100,91,73,30.41,29.93,15,3,18,0.46
2013-11-7,54.9,40.4,29.9,39.0,32.6,29.0,100,78,40,30.46,30.39,10,1,16,0.01
2013-11-8,63.4,48.5,30.3,40.0,34.2,28.0,97,63,32,30.42,29.94,22,4,28,0.00
2013-11-9,65.8,50.5,38.3,42.0,37.2,33.0,92,63,32,30.38,30.02,12,1,14,0.00
2013-11-10,57.9,47.6,36.8,41.0,34.7,29.0,89,64,37,30.46,30.27,7,1,10,0.00
2013-11-11,60.5,46.1,27.2,52.0,38.0,16.0,93,74,59,30.71,30.22,14,3,20,0.00
2013-11-12,35.4,25.4,17.5,17.0,13.8,9.0,84,66,40,30.97,30.68,14,2,20,0.00
2013-11-13,47.6,33.6,19.3,22.0,16.4,12.0,83,55,29,30.79,30.26,14,4,17,0.00
2013-11-14,53.4,42.5,33.8,28.0,25.0,21.0,68,53,36,30.26,30.01,15,5,20,0.00
2013-11-15,57.9,49.0,42.4,46.0,38.1,26.0,89,68,53,30.06,29.79,11,3,17,0.00
2013-11-16,68.5,61.0,49.1,60.0,56.0,45.0,94,84,70,29.81,29.47,22,6,25,0.00
2013-11-17,66.7,59.4,46.0,62.0,40.4,18.0,87,55,19,30.14,29.38,25,6,34,0.00
2013-11-18,58.2,44.7,34.9,36.0,30.0,24.0,91,61,30,30.36,30.12,10,1,13,0.00
2013-11-19,60.0,46.9,33.0,30.0,26.7,23.0,82,51,28,30.33,30.05,15,3,19,0.00
2013-11-20,49.6,44.1,38.6,39.0,31.9,19.0,95,67,33,30.07,29.92,12,3,18,0.32
2013-11-21,34.4,30.7,27.8,34.0,30.6,28.0,100,100,100,30.50,30.29,10,3,16,0.18
2013-11-22,30.4,26.5,23.4,28.0,23.0,19.0,100,91,84,30.71,30.46,12,3,16,0.00
2013-11-23,28.2,22.9,14.6,20.0,12.3,6.0,89,67,44,30.87,30.70,14,2,15,0.00
2013-11-24,25.8,19.5,11.8,14.0,9.2,5.0,84,68,51,30.86,30.41,8,2,10,0.00
2013-11-25,36.2,30.0,25.3,21.0,18.4,13.0,84,65,53,30.42,30.23,9,2,10,0.00
2013-11-26,37.5,28.1,21.1,26.0,18.9,9.0,95,73,46,30.47,30.24,15,2,18,0.00
2013-11-27,32.4,23.8,15.1,13.0,10.2,8.0,80,60,41,30.52,30.25,11,2,15,0.00
2013-11-28,42.4,31.4,24.7,23.0,18.4,12.0,78,62,48,30.59,30.24,9,2,14,0.00
2013-11-29,50.7,34.4,23.1,30.0,23.3,17.0,82,68,46,30.60,30.33,10,2,11,0.00
2013-11-30,54.9,40.5,30.3,39.0,31.1,23.0,91,72,54,30.35,30.14,9,2,12,0.00
2013-12-1,58.0,39.8,27.0,40.0,32.9,25.0,100,80,49,30.20,29.95,4,1,7,0.00
2013-12-2,49.8,41.0,33.3,45.0,38.9,31.0,100,93,79,29.95,29.65,7,2,14,0.00
2013-12-3,58.6,45.7,38.9,48.0,42.7,38.0,100,90,64,29.68,29.57,9,2,11,0.00
2013-12-4,45.9,34.5,22.4,46.0,32.2,13.0,100,93,72,30.14,29.56,16,4,19,0.01
2013-12-5,22.9,17.5,15.2,14.0,8.7,5.0,90,71,65,30.48,30.09,15,3,17,0.00
2013-12-6,18.0,14.3,9.8,6.0,1.4,-2.0,69,59,48,30.76,30.43,10,2,15,0.00
2013-12-7,21.3,13.5,4.5,4.0,1.7,-2.0,81,63,45,30.80,30.46,10,2,12,0.00
2013-12-8,22.5,19.9,17.4,21.0,14.3,4.0,98,83,57,30.48,30.02,10,2,17,0.00
2013-12-9,20.3,12.6,10.2,16.0,6.2,2.0,94,79,61,30.50,30.23,9,2,12,0.00
2013-12-10,37.4,22.8,10.4,18.0,11.3,3.0,79,65,45,30.44,30.25,11,3,14,0.00
2013-12-11,27.6,21.0,11.4,20.0,10.1,2.0,87,67,42,30.72,30.31,11,2,17,0.00
2013-12-12,44.2,27.5,11.0,23.0,13.1,2.0,78,59,36,30.71,30.23,12,3,19,0.00
2013-12-13,35.1,31.8,26.1,34.0,29.7,21.0,100,94,78,30.25,29.88,9,2,12,0.12
2013-12-14,33.6,25.7,20.1,34.0,23.3,17.0,100,94,83,30.29,29.92,14,3,19,0.01
2013-12-15,48.5,33.1,17.3,34.0,25.0,15.0,97,76,55,30.30,30.02,10,2,13,0.00
2013-12-16,59.2,39.9,26.9,33.0,27.2,22.0,90,65,34,30.24,30.02,10,1,10,0.00
2013-12-17,46.4,33.4,24.1,32.0,23.7,20.0,97,73,44,30.35,30.22,14,2,17,0.00
2013-12-18,60.9,44.9,25.0,38.0,30.1,19.0,85,59,38,30.33,29.84,18,5,27,0.00
2013-12-19,55.6,53.1,48.0,52.0,46.4,36.0,89,79,56,29.85,29.68,12,3,16,0.00
2013-12-20,55.5,25.9,20.6,48.0,23.8,18.0,100,94,79,30.02,29.71,14,2,16,0.00
2013-12-21,27.7,24.3,20.8,28.0,22.6,18.0,100,96,91,30.01,29.63,9,2,11,0.01
2013-12-22,26.2,20.5,11.8,26.0,18.0,9.0,100,94,86,30.46,29.75,9,2,10,0.00
2013-12-23,13.8,9.5,5.5,9.0,4.6,1.0,94,84,73,30.70,30.43,6,1,7,0.00
2013-12-24,29.3,16.4,2.9,27.0,12.4,-1.0,97,88,74,30.70,30.25,9,2,11,0.00
2013-12-25,39.0,30.6,24.4,30.0,26.3,21.0,99,88,68,30.44,30.33,12,2,13,0.04
2013-12-26,46.4,32.2,21.7,31.0,25.6,20.0,99,82,53,30.44,30.24,14,2,18,0.26
2013-12-27,52.4,37.7,23.9,37.0,30.4,22.0,99,78,48,30.47,30.25,9,2,12,0.00
2013-12-28,53.9,42.3,32.0,34.0,29.8,26.0,86,66,39,30.25,29.93,14,3,20,0.00
2013-12-29,40.3,18.1,10.7,33.0,7.9,-3.0,83,68,48,30.41,29.97,14,3,21,0.00
2013-12-30,28.2,17.9,9.0,14.0,4.2,-3.0,74,58,43,30.41,30.22,10,2,13,0.00
2013-12-31,49.5,32.5,16.3,28.0,20.2,13.0,93,66,41,30.39,30.09,17,3,23,0.00
2014-1-1,38.9,22.1,8.9,23.0,15.3,4.0,91,79,54,30.38,30.08,13,3,15,0.00
2014-1-2,17.7,8.1,1.2,5.0,0.2,-4.0,87,74,55,30.57,30.35,10,2,15,0.00